Location: Meinert
(37.9441°N, 122.0275°W)
Time: 18:57:50
(UTC+00:00)

ATLAS 5 CENTAUR R/B - Pass Details

Date: 18 April 2024
Orbit: 420 x 1169 km, 63.3° (Epoch: 23 May)

Event Time Altitude Azimuth Distance (km) Brightness Sun altitude
Rises 12:42:49 0° 319° (NW) 3,154 5.0 -9.2°
Reaches altitude 10° 12:45:04 10° 313° (NW) 2,340 4.3 -8.8°
Maximum altitude 12:50:16 46° 242° (WSW) 1,201 2.6 -7.9°
Drops below altitude 10° 12:56:32 10° 172° (S) 2,815 4.8 -6.7°
Sets 12:59:29 0° 166° (SSE) 3,859 5.6 -6.2°
